Tiempo cada hora Alkino

Hoy, 28 Julio, Miércoles

Tiempo Temperatura Precipitaciones Viento Presión Humedad
00:00 +17°C° 0 mm 2 mps 754 mmHg 80%
01:00 +16°C° 0 mm 1 mps 754 mmHg 82%
02:00 +15°C° 0 mm 1 mps 754 mmHg 85%
03:00 +15°C° 0 mm 1 mps 754 mmHg 87%
04:00 +16°C° 0 mm 2 mps 754 mmHg 81%
05:00 +17°C° 0 mm 3 mps 754 mmHg 74%
06:00 +17°C° 0 mm 3 mps 754 mmHg 68%
07:00 +19°C° 0 mm 4 mps 754 mmHg 58%
08:00 +21°C° 0 mm 5 mps 754 mmHg 48%
09:00 +22°C° 0 mm 5 mps 755 mmHg 38%
10:00 +23°C° 0 mm 5 mps 754 mmHg 34%
11:00 +25°C° 0 mm 5 mps 754 mmHg 30%
12:00 +26°C° 0 mm 5 mps 754 mmHg 26%
13:00 +26°C° 0 mm 5 mps 754 mmHg 24%
14:00 +27°C° 0 mm 5 mps 754 mmHg 23%
15:00 +27°C° 0 mm 5 mps 754 mmHg 21%
16:00 +26°C° 0 mm 4 mps 754 mmHg 22%
17:00 +26°C° 0 mm 4 mps 754 mmHg 24%
18:00 +25°C° 0 mm 3 mps 754 mmHg 25%
19:00 +21°C° 0 mm 3 mps 754 mmHg 31%
20:00 +19°C° 0 mm 2 mps 754 mmHg 37%
21:00 +16°C° 0 mm 2 mps 754 mmHg 43%
22:00 +15°C° 0 mm 1 mps 754 mmHg 46%
23:00 +14°C° 0 mm 1 mps 754 mmHg 50%

Mañana, 29 Julio, Jueves

Tiempo Temperatura Precipitaciones Viento Presión Humedad
00:00 +13°C° 0 mm 0 mps 754 mmHg 54%
01:00 +12°C° 0 mm 0 mps 754 mmHg 55%
02:00 +12°C° 0 mm 0 mps 754 mmHg 56%
03:00 +12°C° 0 mm 0 mps 754 mmHg 57%
04:00 +14°C° 0 mm 1 mps 754 mmHg 52%
05:00 +16°C° 0 mm 1 mps 754 mmHg 47%
06:00 +19°C° 0 mm 1 mps 754 mmHg 42%
07:00 +20°C° 0 mm 2 mps 754 mmHg 37%
08:00 +23°C° 0 mm 2 mps 754 mmHg 33%
09:00 +26°C° 0 mm 3 mps 753 mmHg 28%
10:00 +27°C° 0 mm 3 mps 753 mmHg 27%
11:00 +28°C° 0 mm 3 mps 753 mmHg 27%
12:00 +30°C° 0 mm 4 mps 752 mmHg 26%
13:00 +30°C° 0 mm 4 mps 752 mmHg 25%
14:00 +30°C° 0 mm 5 mps 751 mmHg 25%
15:00 +32°C° 0 mm 5 mps 750 mmHg 25%
16:00 +28°C° 0 mm 4 mps 750 mmHg 34%
17:00 +26°C° 0 mm 3 mps 750 mmHg 43%
18:00 +24°C° 0 mm 2 mps 750 mmHg 52%
19:00 +21°C° 0.4 mm 2 mps 750 mmHg 64%
20:00 +19°C° 0.4 mm 2 mps 750 mmHg 76%
21:00 +18°C° 0.4 mm 2 mps 750 mmHg 89%
22:00 +18°C° 0.1 mm 2 mps 750 mmHg 90%
23:00 +18°C° 0.1 mm 2 mps 749 mmHg 92%

Pasado mañana, 30 Julio, Viernes

Tiempo Temperatura Precipitaciones Viento Presión Humedad
00:00 +18°C° 0.1 mm 2 mps 749 mmHg 93%
01:00 +17°C° 0 mm 2 mps 749 mmHg 93%
02:00 +17°C° 0 mm 2 mps 748 mmHg 93%
03:00 +17°C° 0 mm 2 mps 748 mmHg 94%
04:00 +18°C° 0 mm 2 mps 748 mmHg 90%
05:00 +19°C° 0 mm 1 mps 748 mmHg 87%
06:00 +20°C° 0 mm 1 mps 748 mmHg 84%
07:00 +21°C° 0 mm 2 mps 748 mmHg 75%
08:00 +24°C° 0 mm 2 mps 748 mmHg 67%
09:00 +26°C° 0 mm 2 mps 748 mmHg 58%
10:00 +28°C° 0 mm 3 mps 748 mmHg 53%
11:00 +29°C° 0 mm 3 mps 748 mmHg 47%
12:00 +31°C° 0 mm 3 mps 748 mmHg 42%
13:00 +31°C° 0 mm 3 mps 748 mmHg 41%
14:00 +31°C° 0 mm 3 mps 748 mmHg 40%
15:00 +31°C° 0 mm 3 mps 748 mmHg 38%
16:00 +30°C° 0 mm 3 mps 748 mmHg 40%
17:00 +29°C° 0 mm 3 mps 748 mmHg 42%
18:00 +29°C° 0 mm 2 mps 748 mmHg 44%
19:00 +28°C° 0 mm 2 mps 748 mmHg 47%
20:00 +27°C° 0 mm 2 mps 749 mmHg 49%
21:00 +26°C° 0 mm 2 mps 749 mmHg 52%
22:00 +25°C° 0 mm 1 mps 749 mmHg 55%
23:00 +24°C° 0 mm 1 mps 749 mmHg 59%

31 Julio, Sábado

Tiempo Temperatura Precipitaciones Viento Presión Humedad
00:00 +23°C° 0 mm 1 mps 749 mmHg 63%
01:00 +22°C° 0 mm 1 mps 749 mmHg 66%
02:00 +19°C° 0 mm 0 mps 749 mmHg 68%
03:00 +19°C° 0 mm 0 mps 749 mmHg 71%
04:00 +20°C° 0 mm 0 mps 750 mmHg 66%
05:00 +22°C° 0 mm 0 mps 750 mmHg 61%
06:00 +23°C° 0 mm 0 mps 750 mmHg 56%
07:00 +27°C° 0 mm 1 mps 750 mmHg 50%
08:00 +29°C° 0 mm 2 mps 750 mmHg 44%
09:00 +31°C° 0 mm 2 mps 750 mmHg 38%
10:00 +32°C° 0 mm 4 mps 750 mmHg 38%
11:00 +32°C° 0 mm 5 mps 749 mmHg 39%
12:00 +32°C° 0 mm 7 mps 749 mmHg 39%
13:00 +30°C° 0 mm 6 mps 749 mmHg 44%
14:00 +28°C° 0 mm 4 mps 749 mmHg 50%
15:00 +27°C° 0 mm 3 mps 749 mmHg 55%
16:00 +27°C° 0 mm 3 mps 749 mmHg 54%
17:00 +28°C° 0 mm 4 mps 749 mmHg 54%
18:00 +28°C° 0 mm 4 mps 749 mmHg 53%
19:00 +26°C° 0 mm 3 mps 749 mmHg 63%
20:00 +24°C° 0 mm 3 mps 749 mmHg 73%
21:00 +22°C° 0 mm 3 mps 749 mmHg 84%
22:00 +21°C° 0.1 mm 3 mps 749 mmHg 85%
23:00 +21°C° 0.1 mm 2 mps 748 mmHg 86%

1 Agosto, Domingo

Tiempo Temperatura Precipitaciones Viento Presión Humedad
00:00 +21°C° 0.1 mm 2 mps 748 mmHg 87%
01:00 +21°C° 0 mm 2 mps 748 mmHg 88%
02:00 +20°C° 0 mm 2 mps 748 mmHg 89%
03:00 +20°C° 0 mm 2 mps 748 mmHg 90%
04:00 +21°C° 0 mm 2 mps 749 mmHg 85%
05:00 +23°C° 0 mm 2 mps 749 mmHg 80%
06:00 +24°C° 0 mm 3 mps 750 mmHg 75%
07:00 +26°C° 0 mm 3 mps 750 mmHg 63%
08:00 +29°C° 0 mm 4 mps 750 mmHg 51%
09:00 +32°C° 0 mm 4 mps 750 mmHg 39%
10:00 +33°C° 0 mm 4 mps 750 mmHg 34%
11:00 +34°C° 0 mm 5 mps 750 mmHg 29%
12:00 +36°C° 0 mm 5 mps 750 mmHg 25%
13:00 +36°C° 0 mm 5 mps 750 mmHg 24%
14:00 +36°C° 0 mm 5 mps 750 mmHg 23%
15:00 +37°C° 0 mm 5 mps 750 mmHg 22%
16:00 +36°C° 0 mm 4 mps 750 mmHg 23%
17:00 +35°C° 0 mm 4 mps 750 mmHg 25%
18:00 +34°C° 0 mm 4 mps 750 mmHg 27%
19:00 +32°C° 0 mm 4 mps 751 mmHg 33%
20:00 +28°C° 0 mm 3 mps 751 mmHg 38%
21:00 +26°C° 0 mm 2 mps 752 mmHg 44%
22:00 +24°C° 0 mm 2 mps 752 mmHg 48%
23:00 +23°C° 0 mm 1 mps 752 mmHg 52%

2 Agosto, Lunes

Tiempo Temperatura Precipitaciones Viento Presión Humedad
00:00 +22°C° 0 mm 1 mps 752 mmHg 57%
01:00 +22°C° 0 mm 1 mps 752 mmHg 58%
02:00 +21°C° 0 mm 1 mps 752 mmHg 60%
03:00 +21°C° 0 mm 1 mps 752 mmHg 62%
04:00 +20°C° 0 mm 0 mps 753 mmHg 57%
05:00 +22°C° 0 mm 0 mps 753 mmHg 52%
06:00 +23°C° 0 mm 0 mps 753 mmHg 48%
07:00 +28°C° 0 mm 1 mps 753 mmHg 42%
08:00 +30°C° 0 mm 2 mps 753 mmHg 36%
09:00 +32°C° 0 mm 2 mps 753 mmHg 30%
10:00 +34°C° 0 mm 2 mps 753 mmHg 28%
11:00 +36°C° 0 mm 2 mps 753 mmHg 26%
12:00 +37°C° 0 mm 2 mps 752 mmHg 23%
13:00 +37°C° 0 mm 2 mps 752 mmHg 23%
14:00 +38°C° 0 mm 2 mps 752 mmHg 22%
15:00 +38°C° 0 mm 2 mps 752 mmHg 22%
16:00 +37°C° 0 mm 2 mps 752 mmHg 23%
17:00 +36°C° 0 mm 2 mps 752 mmHg 24%
18:00 +35°C° 0 mm 2 mps 751 mmHg 25%
19:00 +34°C° 0 mm 2 mps 752 mmHg 28%
20:00 +31°C° 0 mm 2 mps 752 mmHg 31%
21:00 +30°C° 0 mm 2 mps 752 mmHg 34%
22:00 +29°C° 0 mm 2 mps 752 mmHg 36%
23:00 +28°C° 0 mm 2 mps 752 mmHg 38%
Mostrar más

Necesitamos Su Consentimiento

Meteoprog y nuestros Proveedores de Servicios pueden almacenar y acceder a sus datos personales como cookies, identificadores de dispositivo u otras tecnologías similares de su dispositivo y procesar dichos datos para personalizar contenido y anuncios, además de ofrecer funciones de redes sociales y analizar el tráfico.

  • Almacenar y/o acceder a información en su dispositivo

    Se puede almacenar o acceder a cookies, identificadores de dispositivo u otra información de su dispositivo para los fines anteriormente indicados.

  • Anuncios y contenido personalizados, medición de anuncios y contenido, percepciones del público, y desarrollo de productos

    Los anuncios y el contenido pueden personalizarse en base a su perfil. Se pueden añadir más datos para personalizar mejor los anuncios y contenidos. Se puede medir el rendimiento de los anuncios y contenidos. Se puede obtener la percepción sobre el público que ha visto los anuncios y contenidos. Dichos datos pueden usarse para desarrollar o mejorar la experiencia del usuario, sistemas y software.

Al hacer clic en ‘Estoy De Acuerdo’ usted permitirá el uso de las cookies, identificadores de dispositivo, balizas web u otras tecnologías similares indicadas. Su configuración puede cambiarse desde el navegador de su dispositivo.

Para ciertos fines, los intereses legítimos pueden ser considerados por encima del consentimiento. Puede leer más sobre ello en nuestra Política de Privacidad y Cookies.